Home > Weather > Aalen > Past weeks

Flag for Germany Weather for the Past 2 Weeks in Aalen, Baden-Württemberg, Germany

Now
37 °F

Partly sunny.


Feels Like: 30 °F
Forecast: 33 / 49 °F
Wind: 10 mph from South

Location: Niederstetten

Current Time: Feb 6, 2016 at 8:49:28 AM

Latest Report: Feb 6, 2016 at 8:20 AM


Visibility: N/A

Pressure: 30.07 "Hg

Humidity: 87%

Dew point: 34 °F

Location of AalenLocation

Historic Weather in Aalen — Graph

°F

Aalen Temperature Yesterday

Maximum temperature yesterday: 45 °F (at 3:20 PM)
Minimum temperature yesterday: 32 °F (at 5:20 AM)
Average temperature yesterday: 39 °F

High & Low Weather Summary for the Past Weeks

 TemperatureHumidityPressure
High54 °F (Jan 26, 12:20 PM)100% (Jan 23, 4:20 AM)30.60 "Hg (Jan 23, 4:20 AM)
Low16 °F (Jan 22, 7:20 AM)54% (Jan 27, 2:20 PM)29.83 "Hg (Jan 30, 4:20 PM)
Average40 °F86%30.21 "Hg
* Reported Jan 22 7:20 AM — Feb 6 7:20 AM, Aalen, Weather by CustomWeather, © 2016

Note: Actual official high and low records may vary slightly from our data, if they occured in-between our weather recording intervals... More about our weather records

Advertising

Aalen Weather History for the Previous 24 Hours

 ConditionsComfort  
Time TempWeatherWind HumidityBarometerVisibility
7:20 AM
Sat, Feb 6
37 °FPassing clouds.10 mph87%30.07 "HgN/A
6:20 AM37 °FPassing clouds.12 mph87%30.07 "HgN/A
5:20 AM37 °FChilly.12 mph87%30.09 "HgN/A
4:20 AM36 °FChilly.9 mph93%30.09 "HgN/A
3:20 AM37 °FChilly.8 mph87%30.12 "HgN/A
2:20 AM37 °FChilly.10 mph93%30.15 "HgN/A
1:20 AM37 °FChilly.9 mph93%30.15 "HgN/A
12:20 AM37 °FChilly.10 mph93%30.18 "HgN/A
11:20 PM
Fri, Feb 5
39 °FPassing clouds.9 mph93%30.18 "HgN/A
10:20 PM39 °FPassing clouds.7 mph93%30.21 "HgN/A
9:20 PM41 °FPassing clouds.6 mph93%30.21 "HgN/A
8:20 PM41 °FPassing clouds.5 mph93%30.24 "HgN/A
7:20 PM43 °FPassing clouds.6 mph93%30.27 "HgN/A
6:20 PM43 °FPartly cloudy.6 mph93%30.27 "HgN/A
5:20 PM43 °FPartly sunny.5 mph93%30.27 "HgN/A
4:20 PM45 °FPartly sunny.6 mph87%30.27 "HgN/A
4:01 PM45 °FPartly sunny.8 mph87%30.27 "HgN/A
3:20 PM45 °FPartly sunny.9 mph81%30.27 "HgN/A
2:20 PM43 °FScattered clouds.9 mph87%30.27 "HgN/A
1:20 PM41 °FBroken clouds.7 mph87%30.30 "HgN/A
12:20 PM41 °FBroken clouds.10 mph87%30.33 "HgN/A
11:20 AM39 °FPartly sunny.8 mph93%30.33 "Hg5 mi
11:00 AM39 °FLow clouds.9 mph93%30.33 "Hg4 mi
10:20 AM37 °FLight rain. Fog.7 mph93%30.33 "Hg3 mi
9:20 AM36 °FLight rain. Fog.5 mph100%30.33 "Hg1 mi
8:20 AM34 °FLight rain. Fog.6 mph100%30.33 "Hg2 mi
Weather by CustomWeather, © 2016

See weather overviewHow to use our weather pages